Woensdrecht, Netherlands

6:21 PM CEST on May 22, 2017 (GMT +0200)
Woensdrecht Air Base

Weather History for EHWO - February, 2013

Change the Weather History Date:

Wednesday, February 13, 2013

  Actual Average Record
Temperature  
Mean Temperature 30 °F -  
Max Temperature 35 °F 46 °F 57 °F (1998)
Min Temperature 26 °F 35 °F 17 °F (2003)
Degree Days  
Heating Degree Days 34    
Moisture  
Dew Point 26 °F    
Average Humidity 82    
Maximum Humidity 100    
Minimum Humidity 64    
Precipitation  
Precipitation 0.00 in - - ()
Sea Level Pressure  
Sea Level Pressure 30.23 in    
Wind  
Wind Speed 3 mph ()    
Max Wind Speed 7 mph    
Max Gust Speed -    
Visibility 4.8 miles    
Events      
Averages and records for this station are not official NWS values.
T = Trace of Precipitation, MM = Missing Value Source: Averaged Metar Reports

Daily Weather History Graph

Daily Weather History Graph

Search for Another Location

Airport or City:

Trip Planner

Search our weather history database for the weather conditions in past years. The results will help you decide how hot, cold, wet, or windy it might be!

Date:

Astronomy

Feb. 13, 2013 Rise Set
Actual Time 8:00 AM CET 5:54 PM CET
Civil Twilight 7:25 AM CET 6:29 PM CET
Nautical Twilight 6:46 AM CET 7:08 PM CET
Astronomical Twilight 6:07 AM CET 7:46 PM CET
Moon 8:51 AM CET (2/13) 10:15 PM CET (2/13)
Length of Visible Light 11h 03m
Length of Day
9h 54m
Waxing Crescent, 12% of the Moon is Illuminated
Feb 13
Waxing Crescent
Feb 17
First Quarter
Feb 25
Full
Mar 4
Last Quarter
Mar 11
New

Hourly Weather History & Observations

Time (CET) Temp. Windchill Dew Point Humidity Pressure Visibility Wind Dir Wind Speed Gust Speed Precip Events Conditions
12:20 AM 28.4 °F - 24.8 °F 86% 30.12 in 5.0 mi Calm Calm - N/A   Haze
12:25 AM 28.4 °F - 23.0 °F 80% 30.12 in 4.3 mi Calm Calm - N/A   Haze
12:55 AM 28.4 °F - 23.0 °F 80% 30.12 in 4.3 mi Calm Calm - N/A   Overcast
1:25 AM 26.6 °F - 23.0 °F 86% 30.12 in 4.3 mi Calm Calm - N/A   Overcast
1:55 AM 26.6 °F - 23.0 °F 86% 30.12 in 4.3 mi Calm Calm - N/A   Overcast
2:25 AM 26.6 °F - 23.0 °F 86% 30.12 in 4.3 mi Calm Calm - N/A   Overcast
2:55 AM 26.6 °F - 23.0 °F 86% 30.15 in 3.7 mi Calm Calm - N/A   Overcast
3:25 AM 26.6 °F - 24.8 °F 93% 30.15 in 4.3 mi Calm Calm - N/A   Overcast
3:55 AM 28.4 °F - 24.8 °F 86% 30.15 in 4.3 mi East 2.3 mph - N/A   Overcast
4:25 AM 28.4 °F 24.6 °F 24.8 °F 86% 30.15 in 3.7 mi ENE 3.5 mph - N/A   Overcast
4:55 AM 28.4 °F - 24.8 °F 86% 30.15 in 3.7 mi NE 2.3 mph - N/A   Overcast
5:10 AM 28.4 °F 24.6 °F 24.8 °F 86% 30.15 in 3.7 mi ENE 3.5 mph - N/A   Overcast
5:14 AM 28.4 °F - 26.6 °F 93% 30.18 in 3.7 mi NE 2.3 mph - N/A   Overcast
5:25 AM 28.4 °F - 26.6 °F 93% 30.18 in 3.7 mi NE 2.3 mph - N/A   Overcast
5:55 AM 28.4 °F - 26.6 °F 93% 30.18 in 3.1 mi NE 2.3 mph - N/A   Mostly Cloudy
6:04 AM 28.4 °F - 24.8 °F 86% 30.18 in 3.1 mi North 1.2 mph - N/A   Overcast
6:10 AM 26.6 °F - 24.8 °F 93% 30.18 in 3.1 mi NNW 1.2 mph - N/A   Overcast
6:16 AM 26.6 °F - 24.8 °F 93% 30.18 in 3.1 mi Calm Calm - N/A   Overcast
6:20 AM 26.6 °F - 24.8 °F 93% 30.18 in 3.1 mi North 1.2 mph - N/A   Overcast
6:25 AM 26.6 °F - 24.8 °F 93% 30.18 in - North 1.2 mph - N/A   Overcast
6:55 AM 26.6 °F - 24.8 °F 93% 30.21 in 2.8 mi Calm Calm - N/A   Overcast
7:25 AM 28.4 °F - 26.6 °F 93% 30.21 in 3.1 mi NNE 1.2 mph - N/A   Overcast
7:30 AM 28.4 °F - 26.6 °F 93% 30.21 in - NE 1.2 mph - N/A   Overcast
7:55 AM 28.4 °F - 28.4 °F 100% 30.21 in - ENE 2.3 mph - N/A   Overcast
8:03 AM 28.4 °F 24.6 °F 28.4 °F 100% 30.21 in 3.1 mi ENE 3.5 mph - N/A   Overcast
8:07 AM 30.2 °F 26.7 °F 28.4 °F 93% 30.21 in - ENE 3.5 mph - N/A   Overcast
8:11 AM 30.2 °F 26.7 °F 28.4 °F 93% 30.21 in 3.1 mi ENE 3.5 mph - N/A   Overcast
8:13 AM 30.2 °F 26.7 °F 28.4 °F 93% 30.21 in - ENE 3.5 mph - N/A   Overcast
8:25 AM 28.4 °F 23.3 °F 26.6 °F 93% 30.21 in - ENE 4.6 mph - N/A   Overcast
8:27 AM 28.4 °F 23.3 °F 26.6 °F 93% 30.21 in 3.1 mi ENE 4.6 mph - N/A   Overcast
8:55 AM 26.6 °F 20.0 °F 26.6 °F 100% 30.24 in 3.1 mi ENE 5.8 mph - N/A   Scattered Clouds
8:57 AM 26.6 °F 20.0 °F 26.6 °F 100% 30.24 in - East 5.8 mph - N/A   Partly Cloudy
8:59 AM 28.4 °F 23.3 °F 26.6 °F 93% 30.24 in 3.1 mi East 4.6 mph - N/A   Partly Cloudy
9:15 AM 28.4 °F 23.3 °F 28.4 °F 100% 30.24 in - East 4.6 mph - N/A   Mist
9:19 AM 28.4 °F 23.3 °F 28.4 °F 100% 30.24 in 3.1 mi East 4.6 mph - N/A   Mist
9:25 AM 28.4 °F 23.3 °F 26.6 °F 93% 30.24 in 3.1 mi East 4.6 mph - N/A   Mist
9:36 AM 30.2 °F 25.4 °F 28.4 °F 93% 30.24 in 3.7 mi East 4.6 mph - N/A   Mist
9:55 AM 30.2 °F 26.7 °F 28.4 °F 93% 30.24 in 4.3 mi East 3.5 mph - N/A   Mist
10:00 AM 32.0 °F 28.7 °F 28.4 °F 87% 30.24 in 5.0 mi East 3.5 mph - N/A   Partly Cloudy
10:11 AM 32.0 °F 28.7 °F 28.4 °F 87% 30.24 in 4.3 mi East 3.5 mph - N/A   Partly Cloudy
10:15 AM 32.0 °F 27.5 °F 28.4 °F 87% 30.24 in 5.0 mi East 4.6 mph - N/A   Mist
10:25 AM 32.0 °F 26.4 °F 28.4 °F 87% 30.24 in 5.6 mi East 5.8 mph - N/A   Mist
10:28 AM 32.0 °F 26.4 °F 28.4 °F 87% 30.24 in 6.2 mi East 5.8 mph - N/A   Partly Cloudy
10:55 AM 33.8 °F 29.6 °F 28.4 °F 81% 30.24 in 6.2 mi East 4.6 mph - N/A   Unknown
11:16 AM 33.8 °F 29.6 °F 28.4 °F 81% 30.27 in 6.2 mi SE 4.6 mph - N/A   Scattered Clouds
11:25 AM 33.8 °F 29.6 °F 28.4 °F 81% 30.27 in 6.2 mi ESE 4.6 mph - N/A   Mostly Cloudy
11:33 AM 33.8 °F 29.6 °F 28.4 °F 81% 30.27 in 6.2 mi East 4.6 mph - N/A   Mostly Cloudy
11:55 AM 33.8 °F 27.7 °F 28.4 °F 81% 30.27 in 6.2 mi ENE 6.9 mph - N/A   Mostly Cloudy
12:01 PM 33.8 °F 28.6 °F 28.4 °F 81% 30.27 in 6.2 mi East 5.8 mph - N/A   Partly Cloudy
12:25 PM 33.8 °F 27.7 °F 28.4 °F 81% 30.27 in 6.2 mi East 6.9 mph - N/A   Partly Cloudy
12:55 PM 33.8 °F 28.6 °F 28.4 °F 81% 30.27 in 6.2 mi East 5.8 mph - N/A   Scattered Clouds
12:59 PM 33.8 °F 27.7 °F 28.4 °F 81% 30.27 in 6.2 mi East 6.9 mph - N/A   Partly Cloudy
1:04 PM 33.8 °F 27.7 °F 28.4 °F 81% 30.27 in 6.2 mi East 6.9 mph - N/A   Scattered Clouds
1:05 PM 33.8 °F 28.6 °F 28.4 °F 81% 30.27 in 6.2 mi East 5.8 mph - N/A   Scattered Clouds
1:09 PM 35.6 °F 30.7 °F 28.4 °F 75% 30.27 in 6.2 mi East 5.8 mph - N/A   Mostly Cloudy
1:25 PM 35.6 °F 30.7 °F 26.6 °F 70% 30.27 in 6.2 mi East 5.8 mph - N/A   Mostly Cloudy
1:55 PM 35.6 °F 29.9 °F 28.4 °F 75% 30.27 in 6.2 mi East 6.9 mph - N/A   Mostly Cloudy
2:04 PM 35.6 °F 29.9 °F 26.6 °F 70% 30.27 in 5.6 mi East 6.9 mph - N/A   Haze
2:12 PM 35.6 °F 30.7 °F 26.6 °F 70% 30.27 in 5.6 mi East 5.8 mph - N/A   Haze
2:25 PM 35.6 °F 30.7 °F 26.6 °F 70% 30.27 in 5.6 mi East 5.8 mph - N/A   Haze
2:55 PM 35.6 °F 29.9 °F 26.6 °F 70% 30.24 in 6.2 mi East 6.9 mph - N/A   Scattered Clouds
3:25 PM 35.6 °F 30.7 °F 26.6 °F 70% 30.24 in 6.2 mi East 5.8 mph - N/A   Mostly Cloudy
3:49 PM 35.6 °F 31.7 °F 24.8 °F 65% 30.24 in 6.2 mi East 4.6 mph - N/A   Mostly Cloudy
3:55 PM 35.6 °F 31.7 °F 24.8 °F 65% 30.24 in 6.2 mi East 4.6 mph - N/A   Mostly Cloudy
4:25 PM 35.6 °F 29.9 °F 26.6 °F 70% 30.27 in 5.6 mi East 6.9 mph - N/A   Haze
4:55 PM 33.8 °F 27.7 °F 24.8 °F 70% 30.27 in 5.0 mi East 6.9 mph - N/A   Haze
5:25 PM 33.8 °F 30.8 °F 24.8 °F 70% 30.27 in 5.0 mi ESE 3.5 mph - N/A   Haze
5:38 PM 32.0 °F 28.7 °F 24.8 °F 75% 30.27 in 4.3 mi ESE 3.5 mph - N/A   Haze
5:44 PM 32.0 °F 28.7 °F 24.8 °F 75% 30.27 in 5.0 mi ESE 3.5 mph - N/A   Haze
5:49 PM 32.0 °F 27.5 °F 24.8 °F 75% 30.27 in 4.3 mi ESE 4.6 mph - N/A   Haze
5:55 PM 32.0 °F 27.5 °F 24.8 °F 75% 30.27 in 4.3 mi East 4.6 mph - N/A   Haze
6:25 PM 30.2 °F 25.4 °F 24.8 °F 80% 30.27 in 3.7 mi East 4.6 mph - N/A   Haze
6:55 PM 30.2 °F 26.7 °F 24.8 °F 80% 30.27 in 3.7 mi ESE 3.5 mph - N/A   Haze
7:25 PM 30.2 °F 26.7 °F 24.8 °F 80% 30.27 in 4.3 mi ESE 3.5 mph - N/A   Haze
7:55 PM 30.2 °F 26.7 °F 23.0 °F 75% 30.27 in 4.3 mi ESE 3.5 mph - N/A   Haze
8:05 PM 30.2 °F 26.7 °F 23.0 °F 75% 30.27 in 5.0 mi SE 3.5 mph - N/A   Haze
8:21 PM 30.2 °F - 21.2 °F 69% 30.27 in 5.0 mi SE 2.3 mph - N/A   Haze
8:25 PM 30.2 °F - 21.2 °F 69% 30.27 in 5.0 mi SE 2.3 mph - N/A   Haze
8:55 PM 30.2 °F 26.7 °F 19.4 °F 64% 30.27 in 5.6 mi SSE 3.5 mph - N/A   Haze
9:25 PM 30.2 °F 26.7 °F 19.4 °F 64% 30.24 in 6.2 mi SSE 3.5 mph - N/A   Unknown
9:55 PM 30.2 °F 26.7 °F 19.4 °F 64% 30.24 in 6.2 mi SE 3.5 mph - N/A   Unknown
10:25 PM 30.2 °F 26.7 °F 19.4 °F 64% 30.24 in 6.2 mi SSE 3.5 mph - N/A   Unknown
10:55 PM 30.2 °F 26.7 °F 19.4 °F 64% 30.24 in 6.2 mi SSE 3.5 mph - N/A   Unknown
11:25 PM 30.2 °F 26.7 °F 19.4 °F 64% 30.24 in 6.2 mi SSE 3.5 mph - N/A   Scattered Clouds
11:55 PM 30.2 °F 26.7 °F 19.4 °F 64% 30.21 in 6.2 mi SSE 3.5 mph - N/A   Mostly Cloudy